Wetbulb
55.29 55.64 55.07 55.30 54.73 54.65 54.88 54.55 53.94 53.59 53.47 53.26 53.01 52.83 52.68 52.34 52.40 52.46 52.57 52.84 52.69 52.92 53.05 52.80 53.19 54.36 54.31 47.07 44.92 53.95 59.65 60.68 57.72 58.04 55.86 52.62 49.12 46.24 42.80 43.66 43.88 41.78 42.93 46.10 47.35 47.27 45.78
56.02 54.97 55.00 54.68 54.33 54.15 54.46 54.28 53.61 53.15 52.99 52.79 52.64 52.11 51.77 51.66 51.54 51.60 51.81 52.07 52.01 52.26 52.35 52.46 53.17 54.17 49.44 41.76 52.76 53.39 53.39 57.49 55.49 57.22 54.97 52.64 50.25 48.93 45.79 44.22 42.77 44.44 45.05 44.91 45.92 45.57 45.04
54.60 54.72 54.91 54.68 53.89 54.10 54.08 53.66 53.18 52.72 52.56 52.58 52.22 51.73 51.45 51.14 51.26 50.98 51.33 51.57 51.76 51.52 51.87 52.38 52.72 51.30 47.72 45.29 52.97 52.90 53.78 56.71 56.68 57.57 53.67 53.62 52.20 48.52 46.19 43.20 46.10 43.92 40.15 41.57 43.15 44.29 44.00
54.07 54.35 54.11 53.75 53.21 53.75 53.41 52.91 52.56 52.43 52.37 52.58 52.15 51.56 51.16 50.76 50.54 50.92 51.21 51.12 50.99 51.38 51.64 51.66 52.02 49.52 42.62 53.53 54.48 52.39 54.71 56.15 57.69 56.85 55.69 55.62 54.19 48.72 45.25 45.27 43.45 40.70 39.54 34.93 40.85 43.71 44.54
53.71 53.73 53.45 53.23 53.02 53.40 52.81 52.44 52.25 51.83 51.67 51.90 51.95 51.33 50.73 50.44 50.20 50.48 50.46 50.64 51.20 51.62 51.50 51.44 46.77 45.46 41.95 54.00 49.60 51.48 51.10 54.46 55.54 55.51 55.76 56.41 52.38 47.36 44.82 39.55 36.37 36.68 30.90 34.27 38.39 43.12 42.05
53.68 53.19 52.66 52.79 52.91 52.70 52.66 52.36 52.11 51.39 51.04 51.51 51.39 50.19 49.60 50.28 50.30 50.52 50.79 51.05 50.88 48.99 48.15 48.94 47.29 40.74 45.29 44.41 49.40 50.19 51.90 54.66 52.76 52.91 51.24 50.12 48.17 42.32 40.92 38.94 30.42 33.33 31.73 33.26 34.75 38.02 39.21
53.23 52.86 52.54 52.75 52.25 52.02 52.41 52.22 50.79 50.88 51.71 51.69 51.41 50.98 50.36 50.16 50.43 50.72 48.82 44.41 38.66 37.78 41.10 36.09 38.16 40.64 45.08 49.82 51.92 49.47 50.50 52.10 51.93 50.08 44.66 47.01 43.41 38.85 40.15 40.09 37.50 37.19 35.15 33.29 35.82 39.03 36.00
52.63 52.35 52.32 51.83 52.60 51.84 52.39 51.11 50.75 51.86 51.93 51.92 52.04 51.84 51.43 50.66 50.52 50.67 46.09 38.97 38.50 41.55 33.40 41.47 41.44 42.53 46.07 49.83 43.85 47.36 51.30 46.70 46.39 42.71 45.23 42.97 38.97 43.25 43.58 42.19 40.67 38.44 34.97 32.46 36.12 37.76 35.16
52.16 51.93 52.15 51.99 51.48 51.13 52.00 50.74 51.30 51.90 52.13 52.57 52.18 51.80 51.73 51.32 50.44 45.97 43.55 41.34 46.31 44.14 33.93 37.53 41.17 41.66 44.14 47.83 43.43 44.51 48.17 47.70 43.70 42.60 42.03 37.36 42.04 45.76 43.79 41.97 40.04 39.23 35.92 32.85 33.09 34.94 33.08
51.74 51.46 51.63 51.35 51.54 50.65 51.44 50.42 50.91 51.70 52.05 52.26 52.34 52.20 51.39 50.69 44.92 44.31 40.73 45.32 46.49 42.93 26.17 31.41 36.66 42.69 45.94 47.15 41.26 48.49 49.87 47.54 44.39 41.12 41.57 39.58 44.75 43.06 41.40 40.01 41.49 35.34 37.03 36.15 33.81 30.77 26.76
51.22 51.23 51.18 50.91 51.08 50.67 50.76 50.01 51.12 51.19 52.39 52.19 52.13 52.24 51.16 50.12 43.40 40.56 44.63 45.06 44.59 41.79 6.77 34.66 38.58 48.78 47.62 42.36 43.01 44.67 50.99 47.15 41.52 40.90 40.67 37.35 40.67 41.37 39.64 40.13 40.80 37.18 37.81 34.58 32.64 28.51 25.77
50.94 51.30 51.04 50.51 50.23 49.96 49.63 49.94 50.54 51.22 52.11 52.72 51.59 51.34 49.98 44.97 44.30 45.01 47.32 44.13 41.45 21.24 17.16 32.87 40.41 38.80 40.53 42.03 42.73 45.74 45.78 48.15 46.69 41.25 40.44 39.09 42.26 41.01 39.19 39.56 40.16 37.92 33.57 30.95 29.68 26.53 17.05
50.44 50.96 50.48 50.16 49.54 49.36 49.67 49.96 49.90 51.43 51.78 52.49 51.14 50.64 48.48 48.05 41.16 45.39 43.71 38.28 22.93 17.24 30.99 31.37 34.09 39.17 38.60 38.85 39.80 41.14 40.42 39.38 37.56 32.49 32.84 36.36 36.76 39.07 39.73 35.13 37.63 34.33 29.92 19.57 16.33 14.70 17.56
50.21 50.74 50.27 49.65 49.72 49.47 49.80 49.71 49.74 50.96 51.60 52.51 51.32 49.27 48.35 47.42 47.00 46.14 42.81 29.28 16.68 28.24 24.30 37.03 38.44 38.89 36.57 38.15 39.27 38.99 38.10 35.91 37.87 35.20 32.35 28.26 28.96 36.12 37.92 34.56 32.73 30.57 29.12 20.39 15.38 15.40 19.12
50.03 50.44 49.86 49.47 49.31 48.70 48.82 49.08 49.40 50.44 51.47 51.73 48.85 42.53 44.21 46.45 48.58 46.77 36.52 26.29 27.09 30.16 33.46 37.07 37.13 35.25 35.03 37.48 37.92 37.77 35.65 34.21 35.63 33.86 30.22 27.92 28.24 36.38 36.92 36.97 35.78 31.12 23.55 28.81 21.39 19.15 14.51
49.62 50.21 49.62 49.44 49.13 48.36 48.29 48.67 49.15 50.25 50.99 50.86 39.22 41.28 42.88 47.01 46.57 41.23 34.85 33.23 35.30 37.83 39.66 36.18 31.36 32.86 30.83 34.94 35.59 35.05 33.60 36.57 35.32 35.93 34.62 30.78 26.81 34.07 35.93 37.68 36.33 32.67 33.26 22.84 17.48 10.72 13.33
49.48 50.00 49.36 49.28 48.74 48.04 47.90 48.24 48.84 49.74 50.72 48.64 38.12 34.17 41.51 45.79 43.02 37.43 31.28 33.04 36.50 40.34 39.15 35.00 31.55 30.92 31.67 32.03 33.13 32.38 31.81 35.52 37.16 35.77 36.13 32.65 30.03 31.63 34.14 30.78 30.06 30.62 28.07 26.43 25.24 20.98 15.77
49.09 49.87 49.33 48.88 48.50 47.83 47.60 47.83 48.38 49.59 50.53 44.03 35.35 30.42 41.63 44.17 35.45 35.88 33.24 36.11 40.09 38.44 39.60 36.32 35.31 33.63 31.17 31.59 30.17 30.55 30.74 32.91 38.44 38.02 32.73 33.28 29.77 25.80 30.49 32.46 34.00 32.02 29.54 27.20 17.32 15.80 20.47
48.64 49.71 49.27 48.55 48.23 47.56 47.34 47.39 47.78 48.98 49.85 39.34 33.69 33.50 41.17 40.69 31.43 28.90 34.52 36.77 38.50 37.70 36.76 35.49 33.91 35.06 34.49 31.72 29.17 31.41 32.91 37.41 38.87 36.65 34.13 33.89 25.68 17.75 25.10 28.21 31.59 29.05 30.56 29.43 26.76 23.34 13.95
48.16 49.01 49.19 48.53 48.04 47.52 47.06 47.03 47.15 48.16 49.14 39.22 33.81 28.38 34.00 36.47 35.98 30.87 32.02 33.52 34.43 39.19 36.62 36.54 35.02 36.16 34.12 32.33 33.79 31.55 32.32 37.37 38.42 38.03 42.54 37.58 27.94 23.01 18.98 23.96 27.39 23.42 29.45 29.36 26.16 17.49 20.85
47.92 48.27 49.36 48.37 47.98 47.57 46.94 46.65 46.81 47.23 48.34 39.07 35.41 34.20 36.79 30.97 31.86 32.47 32.96 33.87 33.50 34.12 37.52 37.05 34.63 34.30 34.39 30.72 32.04 31.35 34.01 34.75 38.18 42.25 37.20 34.27 22.57 21.68 27.56 29.22 28.80 28.37 29.31 29.02 23.85 26.82 21.34
47.71 47.65 49.01 48.21 47.91 47.55 46.93 46.38 46.51 46.51 46.99 38.96 36.44 36.24 38.61 35.49 33.06 31.50 33.85 32.89 33.85 35.06 35.33 34.01 33.63 36.98 36.60 33.17 32.26 31.13 33.02 32.13 32.19 34.60 35.66 34.09 26.10 26.53 23.39 29.59 29.31 26.39 29.63 29.93 29.72 29.47 28.54
47.57 47.34 48.10 48.05 47.42 47.32 46.91 46.34 46.14 46.14 44.02 40.37 41.44 42.13 38.69 33.87 31.24 30.73 31.46 33.75 35.28 36.38 38.19 39.53 39.68 38.90 38.12 39.10 37.27 36.21 35.92 36.13 35.54 33.45 31.61 32.16 27.21 21.36 17.70 26.73 28.24 24.82 28.62 29.86 30.46 33.04 33.47
47.32 47.20 47.45 48.61 47.01 46.76 46.62 46.25 46.03 45.95 43.33 40.97 41.97 40.69 36.54 30.50 30.51 32.48 34.73 35.66 36.13 36.53 34.94 38.43 40.40 37.93 40.84 41.44 39.41 39.87 37.07 35.45 35.68 34.21 34.76 30.10 28.60 27.00 18.73 24.60 17.91 29.44 35.51 34.15 33.01 34.66 35.97
47.10 46.91 47.13 48.17 46.71 46.27 46.10 46.21 45.87 45.75 45.32 37.50 42.70 39.52 37.33 32.42 33.96 33.07 35.41 35.42 35.44 36.38 36.49 37.64 39.22 38.88 40.39 38.07 33.83 32.00 33.82 34.84 35.97 36.58 37.11 36.63 33.82 25.48 23.66 23.80 25.69 33.06 35.39 34.58 34.38 36.15 37.96
46.92 46.76 46.72 47.06 47.81 45.95 45.35 45.73 45.67 45.59 44.93 36.82 41.94 42.05 39.07 34.83 30.36 36.48 35.57 34.85 32.44 31.12 33.63 37.47 40.18 40.91 39.42 35.69 33.15 26.59 25.71 29.23 31.97 34.91 37.76 37.26 33.36 26.80 28.61 21.98 19.84 34.15 37.85 40.86 40.41 33.91 39.15
46.66 46.48 46.19 46.42 46.97 46.19 45.35 45.00 45.67 45.42 45.03 37.87 35.58 36.99 37.98 34.65 36.37 37.95 35.16 35.14 36.46 33.28 32.39 34.93 36.60 36.71 36.94 31.49 29.76 26.16 26.91 32.06 29.74 30.18 32.62 33.86 33.84 28.35 27.81 26.03 27.98 38.06 38.46 41.46 32.69 32.17 38.05
46.47 46.15 46.42 45.97 46.28 47.41 46.00 45.45 44.77 45.61 45.63 38.94 35.65 39.31 33.43 33.40 34.30 36.45 38.66 38.81 39.35 35.98 32.96 35.73 35.00 35.01 33.19 30.48 30.03 28.54 26.92 30.33 28.67 30.77 31.09 29.82 29.56 28.73 29.22 26.43 24.97 39.75 40.43 37.06 38.85 38.98 38.06
45.93 46.28 46.35 46.37 45.74 46.39 46.93 45.64 45.17 44.76 45.25 41.92 34.24 37.46 39.39 31.68 30.45 37.20 38.11 39.24 40.24 39.43 39.85 39.17 35.33 34.67 36.50 31.87 30.36 30.65 30.87 29.20 28.04 28.22 32.08 31.20 32.05 29.78 31.54 31.04 38.55 40.71 41.17 41.59 39.73 38.34 36.87
MSLP
1021.18 1020.74 1020.35 1019.96 1019.49 1018.94 1018.40 1017.98 1017.56 1017.04 1016.60 1015.92 1015.51 1014.97 1014.70 1014.35 1013.92 1013.69 1013.46 1013.17 1012.93 1012.74 1012.57 1012.44 1012.31 1012.11 1011.89 1011.23 1010.17 1009.07 1008.75 1008.80 1009.90 1010.55 1011.27 1011.86 1012.65 1013.33 1013.68 1013.89 1014.07 1014.10 1013.80 1013.58 1013.29 1013.20 1013.23
1021.08 1020.71 1020.25 1019.70 1019.24 1018.51 1018.11 1017.71 1017.30 1016.86 1016.32 1015.76 1015.15 1014.85 1014.55 1014.10 1013.66 1013.43 1013.20 1012.84 1012.66 1012.47 1012.31 1012.05 1012.07 1011.92 1011.79 1010.27 1009.39 1009.22 1008.98 1009.03 1009.42 1010.24 1011.09 1011.69 1012.19 1012.70 1013.29 1013.50 1013.77 1013.59 1013.76 1013.63 1013.36 1013.24 1013.25
1021.29 1020.60 1019.99 1019.49 1019.08 1018.40 1017.91 1017.45 1016.99 1016.66 1015.96 1015.37 1014.95 1014.63 1014.11 1013.83 1013.44 1013.24 1012.84 1012.52 1012.33 1012.14 1011.99 1011.84 1011.72 1011.69 1010.66 1009.55 1009.22 1009.45 1009.21 1008.94 1009.34 1009.99 1010.87 1011.53 1011.97 1012.41 1012.88 1013.35 1013.44 1013.78 1014.10 1013.83 1013.33 1013.31 1013.31
1021.05 1020.75 1020.15 1019.51 1019.05 1018.39 1017.82 1017.20 1016.74 1016.24 1015.49 1015.07 1014.54 1014.19 1013.80 1013.52 1013.27 1012.90 1012.48 1012.27 1012.06 1011.86 1011.62 1011.59 1011.49 1011.54 1010.27 1009.24 1009.42 1009.90 1009.61 1008.98 1009.57 1010.20 1010.73 1011.18 1011.76 1012.46 1012.85 1013.12 1013.53 1014.17 1014.43 1014.31 1013.45 1013.26 1013.17
1020.85 1020.36 1020.06 1019.63 1018.94 1018.11 1017.56 1016.92 1016.41 1015.69 1015.00 1014.48 1014.07 1013.75 1013.28 1012.99 1012.74 1012.64 1012.36 1012.11 1011.68 1011.43 1011.40 1011.49 1011.50 1011.36 1009.74 1009.05 1009.63 1009.25 1009.57 1009.07 1009.72 1010.67 1010.87 1011.19 1012.03 1012.67 1013.09 1013.45 1014.19 1014.42 1014.74 1014.45 1013.86 1013.42 1013.39
1020.88 1020.40 1019.82 1019.45 1018.80 1017.96 1017.22 1016.67 1016.00 1015.25 1014.61 1014.16 1013.73 1013.14 1012.75 1012.60 1012.39 1012.28 1011.94 1011.65 1011.13 1010.91 1011.10 1011.51 1011.54 1011.53 1009.93 1009.08 1009.02 1009.00 1009.23 1008.82 1009.53 1010.54 1011.39 1011.85 1012.45 1012.83 1013.23 1013.65 1013.91 1014.32 1014.79 1014.50 1014.30 1013.97 1013.89
1020.74 1020.30 1019.73 1019.25 1018.62 1017.99 1016.98 1016.44 1015.84 1015.03 1014.34 1013.83 1013.32 1012.82 1012.56 1012.27 1012.04 1011.89 1011.71 1011.61 1011.68 1011.67 1011.31 1011.12 1010.87 1010.13 1009.29 1009.30 1009.25 1009.36 1009.18 1009.07 1009.87 1010.49 1010.99 1011.45 1011.83 1011.94 1012.76 1013.44 1013.70 1014.07 1014.61 1014.70 1014.51 1014.35 1014.45
1020.83 1020.25 1019.67 1019.07 1018.37 1017.83 1016.94 1016.42 1015.53 1014.74 1014.06 1013.35 1012.66 1012.13 1011.89 1011.69 1011.62 1011.57 1011.81 1011.85 1011.86 1012.12 1011.77 1011.00 1010.75 1010.42 1010.08 1009.44 1009.34 1009.45 1009.00 1009.29 1009.87 1010.34 1010.88 1011.39 1011.65 1011.92 1012.69 1013.36 1013.77 1014.13 1014.73 1014.92 1014.88 1014.88 1015.18
1020.63 1020.22 1019.84 1019.04 1018.36 1017.57 1017.00 1016.38 1015.56 1014.67 1013.83 1012.97 1012.04 1011.23 1010.71 1011.01 1011.18 1011.48 1011.67 1011.67 1011.47 1011.86 1011.98 1011.30 1010.83 1010.80 1010.14 1009.66 1009.53 1009.67 1009.51 1009.61 1010.21 1010.68 1011.28 1011.32 1011.98 1012.06 1012.54 1013.35 1014.02 1014.35 1014.71 1015.08 1015.64 1015.76 1015.98
1020.51 1020.02 1019.57 1018.90 1018.40 1017.61 1017.05 1016.44 1015.63 1014.66 1013.73 1012.82 1011.78 1011.04 1010.30 1010.30 1011.36 1011.40 1011.52 1011.31 1011.57 1011.91 1012.07 1011.75 1011.07 1010.25 1009.87 1009.30 1010.20 1009.77 1009.72 1010.15 1010.62 1011.09 1011.58 1012.09 1012.27 1012.41 1012.94 1013.59 1014.09 1014.68 1014.93 1015.61 1016.33 1016.78 1017.39
1020.66 1020.11 1019.39 1018.79 1018.22 1017.67 1017.12 1016.51 1015.66 1014.71 1013.70 1012.85 1011.93 1011.21 1010.61 1010.54 1011.23 1011.47 1011.62 1011.61 1011.82 1012.25 1012.02 1011.89 1011.08 1010.40 1009.49 1009.65 1010.00 1010.12 1010.10 1010.26 1010.67 1011.56 1012.38 1013.15 1012.74 1012.89 1013.33 1013.89 1014.61 1015.11 1015.54 1016.48 1017.25 1018.01 1018.29
1020.75 1020.21 1019.79 1019.04 1018.27 1017.64 1017.09 1016.48 1015.68 1014.84 1013.76 1013.00 1012.27 1011.85 1011.33 1011.52 1011.65 1012.02 1011.65 1011.69 1012.01 1012.47 1012.48 1011.87 1010.87 1010.50 1010.20 1010.09 1010.37 1010.56 1010.89 1010.67 1010.99 1012.07 1012.96 1013.49 1013.21 1013.33 1013.56 1014.35 1014.79 1015.52 1016.47 1017.63 1018.54 1019.15 1019.65
1020.58 1019.91 1019.58 1019.01 1018.55 1017.75 1017.04 1016.36 1015.60 1014.91 1013.90 1013.23 1012.61 1012.38 1011.99 1012.08 1012.54 1012.29 1012.11 1012.25 1012.35 1012.31 1012.97 1012.25 1011.25 1010.60 1010.36 1010.41 1010.77 1011.21 1011.48 1011.53 1012.01 1013.40 1013.86 1014.31 1014.28 1013.92 1014.05 1015.00 1015.69 1016.10 1017.11 1018.83 1019.90 1020.48 1020.30
1020.66 1020.24 1019.63 1019.19 1018.49 1017.71 1016.94 1016.34 1015.53 1014.98 1014.12 1013.35 1012.93 1012.76 1012.91 1012.77 1012.81 1012.44 1012.50 1012.54 1012.37 1012.68 1012.10 1011.34 1010.74 1010.58 1010.69 1011.11 1011.73 1012.22 1012.15 1012.28 1012.79 1013.10 1014.13 1014.70 1015.37 1014.70 1014.52 1015.02 1015.60 1016.61 1017.44 1019.03 1020.19 1021.19 1020.75
1020.61 1020.23 1019.75 1019.28 1018.63 1017.92 1017.17 1016.43 1015.57 1014.85 1014.24 1013.45 1013.11 1013.20 1013.24 1012.83 1012.55 1012.61 1012.78 1012.38 1012.75 1012.33 1011.86 1010.98 1011.13 1011.47 1011.74 1011.99 1011.97 1012.59 1012.65 1012.82 1012.79 1012.97 1013.77 1014.77 1015.39 1015.01 1014.88 1015.18 1015.80 1017.12 1018.00 1019.00 1020.39 1021.61 1021.21
1020.64 1020.16 1019.91 1019.23 1018.87 1018.18 1017.28 1016.52 1015.65 1014.73 1014.08 1013.42 1013.81 1013.55 1013.00 1012.48 1012.52 1012.58 1012.42 1012.01 1011.96 1011.71 1010.95 1010.98 1011.49 1011.93 1012.28 1012.60 1012.93 1013.01 1012.93 1012.95 1012.99 1013.18 1013.53 1014.66 1015.60 1015.82 1015.64 1015.50 1016.16 1016.57 1017.96 1019.34 1020.62 1021.68 1021.09
1020.78 1020.22 1019.86 1019.38 1018.94 1018.40 1017.52 1016.59 1015.79 1014.80 1013.81 1013.44 1013.97 1013.82 1012.73 1012.22 1012.34 1012.60 1012.75 1012.54 1011.92 1011.21 1010.72 1010.82 1011.38 1011.71 1012.29 1012.65 1012.84 1013.18 1013.21 1013.15 1012.83 1013.26 1013.45 1014.41 1015.27 1016.45 1016.01 1016.20 1016.67 1017.50 1018.27 1019.44 1020.36 1021.35 1021.17
1020.80 1020.28 1019.95 1019.49 1019.03 1018.58 1017.79 1016.81 1015.86 1015.07 1013.97 1013.67 1014.40 1014.19 1012.84 1012.48 1013.03 1013.58 1013.31 1012.65 1011.95 1011.33 1010.59 1010.53 1010.88 1011.34 1011.98 1012.43 1012.74 1012.84 1012.96 1012.90 1012.74 1013.09 1013.82 1014.60 1015.65 1016.67 1016.91 1016.95 1017.00 1017.26 1018.13 1019.03 1020.35 1021.61 1021.52
1020.63 1020.31 1019.92 1019.61 1019.09 1018.70 1017.96 1017.20 1016.26 1015.30 1014.61 1014.82 1015.16 1014.79 1013.14 1013.06 1013.95 1013.96 1013.16 1012.49 1011.96 1011.30 1010.95 1010.72 1010.84 1010.98 1011.51 1012.14 1012.74 1012.86 1012.83 1012.89 1012.84 1013.07 1013.62 1014.48 1016.03 1017.48 1017.77 1017.73 1017.52 1017.72 1018.26 1019.00 1019.97 1020.72 1021.08
1020.52 1020.27 1019.98 1019.67 1019.21 1018.74 1018.16 1017.42 1016.64 1015.75 1014.95 1015.12 1015.45 1015.54 1014.70 1014.13 1014.60 1014.38 1013.69 1012.83 1012.02 1011.32 1011.09 1010.91 1010.99 1010.91 1011.40 1012.10 1012.43 1012.89 1012.95 1012.99 1012.89 1013.11 1013.63 1014.40 1016.33 1017.39 1017.93 1017.84 1017.96 1018.17 1018.27 1018.77 1019.36 1020.52 1019.83
1020.48 1020.24 1020.01 1019.77 1019.38 1018.89 1018.39 1017.67 1016.93 1016.12 1015.12 1015.34 1015.94 1016.35 1016.26 1015.76 1015.02 1014.73 1013.98 1013.02 1012.27 1011.75 1011.23 1011.03 1011.21 1011.27 1011.47 1012.30 1012.65 1012.91 1013.01 1013.19 1013.39 1013.55 1014.26 1015.14 1017.01 1017.89 1017.95 1017.87 1017.89 1017.76 1017.86 1018.24 1018.55 1018.44 1018.40
1020.42 1020.20 1019.98 1019.76 1019.47 1019.05 1018.65 1017.99 1017.25 1016.55 1015.47 1015.88 1016.38 1016.50 1016.06 1015.81 1015.21 1014.63 1013.79 1013.22 1012.46 1012.02 1011.61 1011.40 1011.44 1011.54 1011.56 1012.18 1012.50 1012.90 1013.01 1013.23 1013.49 1014.18 1014.75 1015.75 1017.43 1018.23 1018.28 1017.83 1017.63 1017.52 1017.08 1017.16 1017.27 1017.19 1016.74
1020.48 1020.20 1019.97 1019.69 1019.54 1019.20 1018.81 1018.29 1017.67 1017.21 1016.42 1016.72 1016.84 1016.61 1016.59 1015.72 1015.29 1014.65 1014.24 1013.25 1012.49 1012.02 1011.79 1011.40 1011.31 1011.67 1012.08 1012.39 1012.45 1012.47 1012.78 1012.98 1013.20 1014.00 1015.05 1015.96 1017.28 1018.27 1018.47 1017.97 1017.31 1016.51 1015.00 1015.19 1015.35 1015.08 1014.79
1020.41 1020.22 1019.98 1019.67 1019.54 1019.29 1018.91 1018.56 1018.07 1017.82 1017.74 1017.92 1017.66 1017.30 1016.84 1016.23 1015.75 1014.94 1014.10 1013.51 1012.83 1012.38 1012.16 1012.14 1011.89 1011.91 1012.46 1012.45 1012.61 1012.83 1013.19 1013.42 1013.69 1014.19 1014.46 1015.77 1016.80 1017.65 1018.14 1017.56 1016.40 1013.83 1013.01 1013.07 1013.37 1013.23 1013.24
1020.22 1020.08 1019.98 1019.65 1019.50 1019.33 1019.05 1018.71 1018.40 1018.11 1017.99 1018.32 1018.05 1017.86 1017.35 1016.72 1016.15 1015.15 1014.41 1013.62 1013.04 1012.75 1012.60 1012.50 1012.57 1012.74 1012.59 1012.75 1013.37 1013.62 1013.92 1014.04 1014.19 1014.25 1014.51 1014.76 1015.92 1017.17 1017.60 1017.04 1015.06 1012.81 1012.35 1012.33 1012.43 1012.07 1011.66
1020.00 1019.95 1019.81 1019.59 1019.40 1019.28 1019.04 1018.82 1018.54 1018.29 1018.16 1018.47 1018.37 1018.14 1017.93 1017.42 1016.09 1015.78 1015.03 1014.21 1013.60 1013.30 1013.19 1012.99 1012.90 1012.82 1012.99 1013.48 1013.92 1014.14 1014.14 1014.04 1014.43 1014.71 1014.73 1014.99 1015.38 1016.58 1016.84 1016.28 1014.42 1012.53 1011.52 1011.24 1011.35 1011.53 1011.00
1019.77 1019.82 1019.68 1019.48 1019.21 1019.11 1018.95 1018.80 1018.60 1018.34 1018.23 1018.48 1018.80 1018.61 1018.42 1017.73 1016.22 1015.80 1015.30 1014.65 1013.84 1013.56 1013.47 1013.36 1013.08 1013.21 1013.38 1014.07 1014.43 1014.41 1014.20 1013.80 1014.20 1014.33 1014.73 1015.14 1015.55 1015.78 1015.80 1015.13 1013.20 1011.61 1011.23 1011.18 1011.49 1011.60 1010.91
1019.42 1019.53 1019.38 1019.25 1019.13 1018.88 1018.76 1018.60 1018.48 1018.26 1018.10 1018.45 1018.75 1018.49 1018.89 1018.34 1016.66 1016.09 1015.64 1015.01 1014.25 1013.97 1013.80 1013.42 1013.56 1013.61 1013.99 1014.25 1014.51 1014.36 1014.38 1013.92 1013.93 1013.80 1013.96 1014.26 1014.70 1014.76 1014.91 1014.24 1012.60 1011.00 1011.14 1011.29 1011.07 1010.80 1010.94
1019.20 1019.19 1019.09 1018.94 1018.86 1018.70 1018.51 1018.30 1018.14 1018.01 1017.96 1018.18 1018.63 1018.43 1018.41 1018.83 1017.35 1016.37 1015.75 1015.05 1014.68 1014.27 1014.33 1013.50 1013.01 1012.90 1012.96 1013.74 1014.08 1014.12 1014.20 1014.21 1013.99 1013.95 1013.58 1013.67 1013.20 1013.37 1013.27 1012.29 1011.10 1010.78 1010.94 1010.71 1010.78 1011.05 1011.08
Wind_Speed
18 18 21 21 22 23 24 23 22 22 22 22 20 21 21 20 20 19 17 17 15 15 16 17 15 16 7 4 8 5 6 8 20 15 15 7 11 6 7 6 4 4 2 5 5 4 2
19 20 20 21 24 22 24 22 22 22 21 21 20 20 19 18 18 17 16 15 14 15 15 14 13 11 6 9 5 11 7 3 15 16 13 7 7 5 5 6 5 6 6 4 4 4 3
21 20 22 23 24 24 24 23 22 21 21 22 20 20 18 17 18 15 15 15 15 13 13 12 11 4 6 8 2 7 7 9 15 14 12 8 6 5 5 4 5 5 3 2 5 4 5
20 22 22 24 24 25 24 22 21 23 22 23 20 19 19 18 16 16 16 15 14 14 11 9 7 1 6 2 3 15 9 5 8 5 8 9 6 4 2 3 4 6 3 1 4 7 5
20 22 23 24 25 24 24 22 23 21 24 23 21 17 18 16 16 14 13 14 16 16 11 7 2 3 4 3 2 8 5 12 10 5 6 11 6 3 2 6 4 1 4 4 5 7 4
20 21 22 23 25 25 23 22 23 24 24 21 20 17 15 15 14 12 12 13 14 8 3 3 2 0 4 3 3 4 3 11 6 10 8 9 4 5 4 4 7 6 2 2 5 1 2
19 21 23 23 24 24 24 24 26 24 25 25 23 20 16 14 12 13 10 3 5 3 2 5 7 4 5 4 1 3 4 6 5 5 9 13 6 14 13 5 3 6 4 4 3 1 3
20 21 22 23 23 24 24 25 26 27 28 27 25 22 18 15 12 12 2 2 5 1 2 3 7 8 10 1 5 1 2 4 4 4 5 7 8 8 11 8 6 5 5 2 3 1 2
19 21 23 24 24 24 24 25 27 28 29 29 26 22 17 15 9 2 3 4 1 5 1 2 4 1 8 6 5 5 4 4 3 3 4 8 4 9 12 8 7 3 3 2 3 4 2
18 19 21 23 23 24 25 26 27 29 30 28 24 23 17 4 1 3 2 2 5 3 3 2 2 4 5 9 4 2 4 4 2 4 4 4 3 8 10 2 2 5 1 3 3 3 3
18 19 20 23 22 24 25 27 27 28 29 26 23 22 14 6 4 2 2 6 7 1 9 3 2 4 3 2 12 2 3 3 5 7 3 2 5 12 11 6 4 3 3 5 3 3 4
18 21 22 23 23 23 25 25 26 27 26 24 21 20 9 5 3 3 2 5 3 4 6 2 3 1 6 3 3 5 2 3 4 7 10 3 3 3 3 6 2 8 6 6 4 3 3
17 18 19 21 23 22 23 24 26 26 26 24 16 17 8 4 2 0 2 3 4 7 2 4 3 7 8 9 6 4 1 4 4 5 3 4 4 4 5 8 4 4 5 2 5 4 4
17 18 19 21 21 23 24 25 26 25 25 23 15 8 6 4 2 4 3 4 10 2 1 3 7 11 6 5 7 3 2 4 5 5 4 4 2 3 1 3 7 2 5 5 4 1 3
16 17 18 21 22 23 25 25 26 25 23 18 12 3 1 3 4 2 0 6 3 2 2 5 10 7 5 6 6 3 3 3 2 2 5 4 2 3 2 2 3 4 2 2 7 2 4
15 16 18 19 22 23 24 25 26 25 23 14 2 2 2 3 2 0 1 7 4 3 6 5 5 1 4 3 3 3 1 1 4 2 2 5 6 2 2 4 6 3 7 4 4 1 3
14 16 17 18 21 22 24 25 26 27 26 6 4 3 3 7 3 4 4 4 3 3 2 4 4 4 5 5 4 3 4 1 1 2 4 4 4 1 3 1 5 2 2 5 5 3 4
13 15 16 18 19 22 23 26 27 28 25 8 2 4 2 4 6 1 3 3 3 5 3 4 5 5 4 4 3 3 5 2 4 5 4 1 5 4 2 0 1 2 5 4 6 4 2
12 15 15 17 18 20 22 24 27 28 22 2 2 3 3 2 4 4 5 2 1 5 5 2 2 2 2 4 5 2 3 2 6 3 6 5 2 3 4 5 4 2 4 4 5 4 6
12 13 14 16 17 19 21 23 26 27 22 3 3 4 5 5 2 2 4 5 4 5 3 3 3 4 4 4 5 4 3 4 5 2 8 6 3 5 6 4 3 2 4 5 6 3 4
11 12 14 14 16 17 20 22 25 27 21 3 4 2 0 4 3 4 3 0 3 4 4 5 4 2 5 3 2 2 3 2 5 8 4 4 3 2 4 3 3 4 4 8 8 6 7
10 11 13 12 15 16 18 20 23 26 19 4 2 2 1 3 3 4 3 4 3 1 1 2 5 3 5 4 4 7 6 2 3 3 3 2 3 2 3 2 4 5 8 9 10 6 10
10 11 12 11 12 14 15 18 20 23 13 3 2 1 1 3 4 3 3 3 4 3 3 4 4 5 6 1 3 2 1 4 6 7 3 4 6 3 4 4 5 6 9 13 7 6 10
10 11 12 11 10 13 14 15 17 18 13 2 2 2 2 4 2 1 4 3 4 3 1 3 4 3 3 2 3 6 7 7 7 4 4 6 5 3 2 4 1 7 3 9 11 5 13
9 10 11 11 9 10 12 14 13 14 14 3 3 2 2 3 3 6 5 3 1 4 2 3 4 1 1 3 4 4 2 2 2 2 3 4 4 3 1 2 7 5 5 6 6 5 8
9 10 11 11 10 8 8 12 11 12 9 3 1 2 2 3 3 2 4 4 2 1 2 1 2 1 4 3 2 4 5 5 4 3 3 5 5 5 3 2 4 3 3 2 3 2 2
8 9 11 11 13 7 8 8 12 10 6 3 2 2 1 3 3 1 4 3 2 1 3 1 2 2 3 2 1 3 3 4 6 7 5 4 2 5 6 4 7 5 4 3 1 4 2
8 9 10 10 12 10 7 8 9 11 8 3 3 2 3 3 5 3 3 3 4 1 2 3 4 2 2 2 3 3 3 5 3 5 6 7 7 5 5 3 7 5 5 3 3 3 3
7 11 11 10 10 13 8 11 8 8 9 4 1 1 2 3 6 2 7 11 10 7 3 3 3 3 4 4 1 2 2 1 3 3 0 5 7 6 8 6 3 3 2 5 4 4 3
Wind_Direction
332 345 342 336 336 332 331 332 332 327 327 324 324 326 329 322 318 316 311 296 298 292 288 291 292 287 311 190 246 290 2 210 190 185 190 157 160 146 168 167 123 178 194 205 253 274 223
345 343 338 335 333 333 335 333 331 328 326 322 328 329 325 322 320 318 308 297 296 288 285 289 294 303 247 204 221 336 302 187 177 182 176 156 160 166 148 192 167 189 200 228 249 248 256
344 338 337 337 339 335 336 336 334 328 322 323 329 323 322 321 320 317 307 301 302 299 286 289 287 300 255 218 86 308 276 183 181 177 162 160 161 148 133 129 188 135 111 273 253 201 241
343 337 342 340 335 339 340 339 334 330 332 324 324 321 324 321 314 317 312 311 309 301 286 284 289 283 272 178 46 283 294 145 143 144 149 135 136 105 138 111 68 130 88 197 275 170 232
340 342 342 342 333 339 343 340 334 335 328 335 328 323 317 317 318 319 315 316 300 297 294 298 311 165 260 93 134 235 218 155 128 155 163 157 96 157 95 120 85 154 186 176 313 196 157
342 343 340 340 339 339 341 337 339 335 328 330 324 332 328 321 320 313 315 307 300 305 285 160 291 105 245 207 146 137 226 140 122 140 127 167 150 138 117 179 189 156 171 168 205 293 151
341 339 347 342 339 340 341 344 339 329 330 328 323 320 312 309 315 321 335 344 15 35 352 183 208 242 117 82 321 145 185 110 102 174 180 173 172 189 178 178 150 125 136 159 233 358 306
339 343 345 342 343 339 342 349 332 334 335 331 321 306 294 288 299 323 111 154 182 200 334 271 274 253 302 132 166 115 243 112 114 178 99 136 192 158 144 145 119 122 131 196 289 30 317
342 346 347 341 347 341 345 345 339 339 338 338 335 328 302 269 292 15 157 224 145 133 87 38 93 227 258 153 203 163 179 95 104 125 152 130 126 120 156 160 179 135 144 167 224 338 63
342 346 346 343 345 348 347 346 345 342 342 344 347 344 341 264 152 159 258 283 126 92 105 25 127 210 216 107 130 160 211 119 96 137 87 49 134 136 132 169 100 172 144 115 81 51 267
340 346 347 347 351 350 350 348 345 346 345 349 357 355 22 120 119 108 32 98 116 62 79 204 211 335 43 110 137 143 81 291 116 112 139 65 154 155 159 167 140 128 108 105 91 88 33
343 347 350 347 353 353 351 347 348 349 347 351 7 4 11 27 37 352 113 104 66 42 78 188 100 135 129 167 75 98 46 22 59 73 68 62 14 74 85 68 156 140 80 55 61 90 29
338 351 349 352 352 350 351 350 353 352 350 347 9 11 29 23 16 271 35 41 22 62 287 102 147 152 124 118 95 71 358 113 98 118 87 46 352 5 96 83 15 77 85 338 357 21 218
339 348 351 352 349 354 351 353 351 351 350 340 335 16 19 45 317 338 25 21 58 352 305 249 138 88 88 74 96 76 166 93 63 107 126 141 148 174 72 140 169 119 140 157 215 181 272
337 348 352 348 357 352 352 351 348 350 349 348 330 10 18 268 283 341 75 39 28 350 265 127 78 64 55 42 80 105 45 102 129 92 110 111 33 339 36 118 116 185 104 150 102 50 49
337 348 349 353 354 355 355 351 349 350 349 354 11 346 259 294 310 219 241 76 84 183 45 49 82 85 104 86 96 82 50 111 112 80 141 181 106 342 137 105 39 113 147 69 10 117 281
335 345 350 355 355 355 356 353 352 351 348 7 59 31 272 321 83 38 46 65 348 340 80 98 130 87 104 126 123 151 160 341 101 127 91 124 97 33 93 131 161 111 134 56 107 100 156
334 340 348 352 357 355 358 355 352 353 351 35 77 25 319 8 47 22 45 342 343 346 336 76 94 95 122 139 107 131 162 142 180 168 86 40 122 133 109 44 354 131 159 131 117 238 59
333 336 347 350 357 357 359 359 355 353 1 37 33 281 331 39 55 349 319 8 322 6 9 82 103 102 142 119 109 105 129 99 164 139 149 180 36 68 359 358 7 172 183 119 104 78 203
329 334 344 346 354 358 1 1 358 352 354 77 60 9 329 40 11 352 0 354 6 7 31 43 104 67 85 60 34 148 117 9 161 110 96 85 94 142 183 204 140 176 179 164 128 130 191
323 331 337 344 350 360 360 2 2 354 355 80 33 54 103 336 339 347 303 286 23 6 355 24 39 119 127 102 67 79 77 97 52 121 71 93 106 88 255 230 168 203 187 180 192 182 182
318 327 333 343 348 356 2 4 5 359 353 71 38 355 359 285 268 310 352 350 26 197 352 17 100 59 68 124 174 187 136 148 167 47 97 46 124 94 311 4 208 248 226 205 215 225 260
318 326 324 339 350 351 0 5 7 10 13 49 341 354 331 298 333 38 335 323 339 353 31 58 108 91 71 11 228 199 71 115 149 141 128 109 130 90 280 338 305 276 217 197 183 200 212
313 322 321 335 346 352 355 3 8 12 30 321 9 301 348 299 330 313 323 322 336 353 142 9 19 118 163 130 121 67 61 76 92 79 135 129 118 124 235 353 278 241 167 181 192 223 217
304 319 319 330 338 348 354 353 1 7 24 33 338 351 351 292 305 301 326 291 5 15 56 59 24 16 93 73 66 68 36 82 63 97 130 134 114 104 105 245 279 302 152 142 171 267 211
298 312 318 315 320 331 353 346 347 355 24 54 343 319 330 323 247 321 311 312 204 134 12 69 51 33 67 80 103 163 182 191 162 122 35 89 110 122 176 229 239 261 322 70 98 268 270
291 302 312 312 321 321 337 343 332 333 13 90 293 20 306 275 261 277 241 277 308 110 157 238 183 84 50 99 132 172 221 159 166 180 163 146 165 192 224 262 285 224 230 100 177 230 293
267 290 298 308 304 318 318 316 327 326 333 117 263 292 112 291 285 260 279 282 332 353 173 198 66 325 69 151 164 214 176 220 152 173 174 168 176 191 199 209 260 149 87 183 233 301 270
263 287 292 304 298 304 305 295 297 303 309 158 230 247 136 174 259 259 262 254 238 235 302 275 186 171 178 104 220 125 193 111 170 215 298 192 185 180 192 209 225 189 182 249 188 225 275